Time,TemperatureF,DewpointF,PressureIn,WindDirection,WindDirectionDegrees,WindSpeedMPH,WindSpeedGustMPH,Humidity,HourlyPrecipIn,Conditions,Clouds,dailyrainin,SoftwareType,DateUTC
2013-02-06 00:01:00,19.2,14.6,29.89,NW,319,0.0,0.0,82,0.00,,,0.00,Wunderground v.1.15,2013-02-06 05:01:00,
2013-02-06 00:02:00,19.2,14.6,29.89,NW,319,0.0,0.0,82,0.00,,,0.00,Wunderground v.1.15,2013-02-06 05:02:00,
2013-02-06 00:03:00,19.2,14.6,29.89,NW,319,0.0,0.0,82,0.00,,,0.00,Wunderground v.1.15,2013-02-06 05:03:00,
2013-02-06 00:06:00,19.3,15.0,29.89,NW,319,0.0,0.0,83,0.00,,,0.00,Wunderground v.1.15,2013-02-06 05:06:00,
2013-02-06 00:11:00,19.5,15.2,29.89,NW,319,0.0,0.0,83,0.00,,,0.00,Wunderground v.1.15,2013-02-06 05:11:00,
2013-02-06 00:18:00,19.8,15.7,29.89,East,97,0.0,0.0,84,0.00,,,0.00,Wunderground v.1.15,2013-02-06 05:18:00,
2013-02-06 00:23:00,20.2,16.1,29.89,East,94,0.0,0.0,84,0.00,,,0.00,Wunderground v.1.15,2013-02-06 05:23:00,
2013-02-06 00:29:00,20.9,16.8,29.89,East,94,0.0,0.0,84,0.00,,,0.00,Wunderground v.1.15,2013-02-06 05:29:00,
2013-02-06 00:34:00,21.6,17.5,29.89,SSE,156,0.0,1.0,84,0.00,,,0.00,Wunderground v.1.15,2013-02-06 05:34:00,
2013-02-06 00:39:00,21.7,17.1,29.90,West,276,0.0,1.0,82,0.00,,,0.00,Wunderground v.1.15,2013-02-06 05:39:00,
2013-02-06 00:45:00,21.3,16.7,29.90,West,276,0.0,0.0,82,0.00,,,0.00,Wunderground v.1.15,2013-02-06 05:45:00,
2013-02-06 00:51:00,21.3,16.9,29.89,West,277,0.0,0.0,83,0.00,,,0.00,Wunderground v.1.15,2013-02-06 05:51:00,
2013-02-06 00:57:00,21.5,17.1,29.89,West,276,0.0,0.0,83,0.00,,,0.00,Wunderground v.1.15,2013-02-06 05:57:00,
2013-02-06 01:03:00,21.7,17.6,29.90,West,276,0.0,0.0,84,0.00,,,0.00,Wunderground v.1.15,2013-02-06 06:03:00,
2013-02-06 01:09:00,22.0,17.9,29.89,West,276,0.0,0.0,84,0.00,,,0.00,Wunderground v.1.15,2013-02-06 06:09:00,
2013-02-06 01:16:00,22.6,18.2,29.89,West,276,0.0,0.0,83,0.00,,,0.00,Wunderground v.1.15,2013-02-06 06:16:00,
2013-02-06 01:21:00,22.8,18.4,29.89,West,276,0.0,0.0,83,0.00,,,0.00,Wunderground v.1.15,2013-02-06 06:21:00,
2013-02-06 01:27:00,23.0,18.3,29.89,West,276,0.0,0.0,82,0.00,,,0.00,Wunderground v.1.15,2013-02-06 06:27:00,
2013-02-06 01:32:00,23.1,18.7,29.89,SSE,153,0.0,0.0,83,0.00,,,0.00,Wunderground v.1.15,2013-02-06 06:32:00,
2013-02-06 01:38:00,23.3,18.6,29.89,ESE,122,0.0,0.0,82,0.00,,,0.00,Wunderground v.1.15,2013-02-06 06:38:00,
2013-02-06 01:43:00,23.5,18.8,29.89,ESE,115,0.0,0.0,82,0.00,,,0.00,Wunderground v.1.15,2013-02-06 06:43:00,
2013-02-06 01:49:00,23.8,19.1,29.89,ESE,113,0.0,0.0,82,0.00,,,0.00,Wunderground v.1.15,2013-02-06 06:49:00,
2013-02-06 01:55:00,24.0,19.3,29.89,ESE,113,0.0,0.0,82,0.00,,,0.00,Wunderground v.1.15,2013-02-06 06:55:00,
2013-02-06 02:01:00,24.2,19.2,29.89,East,99,0.0,0.0,81,0.00,,,0.00,Wunderground v.1.15,2013-02-06 07:01:00,
2013-02-06 02:06:00,24.4,19.4,29.89,West,281,0.0,0.0,81,0.00,,,0.00,Wunderground v.1.15,2013-02-06 07:06:00,
2013-02-06 02:11:00,24.8,19.8,29.90,WSW,246,0.0,0.0,81,0.00,,,0.00,Wunderground v.1.15,2013-02-06 07:11:00,
2013-02-06 02:17:00,25.2,19.9,29.90,West,262,0.0,2.0,80,0.00,,,0.00,Wunderground v.1.15,2013-02-06 07:17:00,
2013-02-06 02:22:00,25.6,20.0,29.90,WSW,249,1.0,1.0,79,0.00,,,0.00,Wunderground v.1.15,2013-02-06 07:22:00,
2013-02-06 02:27:00,25.8,19.9,29.90,WSW,242,1.0,1.0,78,0.00,,,0.00,Wunderground v.1.15,2013-02-06 07:27:00,
2013-02-06 02:34:00,26.1,20.2,29.90,West,277,1.0,4.0,78,0.00,,,0.00,Wunderground v.1.15,2013-02-06 07:34:00,
2013-02-06 02:39:00,26.3,20.1,29.90,SW,219,2.0,4.0,77,0.00,,,0.00,Wunderground v.1.15,2013-02-06 07:39:00,
2013-02-06 02:45:00,26.5,20.0,29.90,WSW,256,2.0,2.0,76,0.00,,,0.00,Wunderground v.1.15,2013-02-06 07:45:00,
2013-02-06 02:50:00,26.5,20.0,29.90,SSW,211,1.0,3.0,76,0.00,,,0.00,Wunderground v.1.15,2013-02-06 07:50:00,
2013-02-06 02:56:00,26.6,20.1,29.90,West,278,1.0,5.0,76,0.00,,,0.00,Wunderground v.1.15,2013-02-06 07:56:00,
2013-02-06 03:01:00,26.6,19.7,29.90,East,99,1.0,2.0,75,0.00,,,0.00,Wunderground v.1.15,2013-02-06 08:01:00,
2013-02-06 03:07:00,26.7,19.8,29.90,WNW,291,2.0,5.0,75,0.00,,,0.00,Wunderground v.1.15,2013-02-06 08:07:00,
2013-02-06 03:13:00,26.8,19.9,29.90,West,266,2.0,5.0,75,0.00,,,0.00,Wunderground v.1.15,2013-02-06 08:13:00,
2013-02-06 03:18:00,26.8,19.9,29.90,WNW,291,2.0,12.0,75,0.00,,,0.00,Wunderground v.1.15,2013-02-06 08:18:00,
2013-02-06 03:24:00,26.9,20.0,29.90,WNW,284,3.0,4.0,75,0.00,,,0.00,Wunderground v.1.15,2013-02-06 08:24:00,
2013-02-06 03:29:00,26.9,20.0,29.91,WNW,298,3.0,5.0,75,0.00,,,0.00,Wunderground v.1.15,2013-02-06 08:29:00,
2013-02-06 03:36:00,27.0,20.1,29.91,SW,218,4.0,4.0,75,0.00,,,0.00,Wunderground v.1.15,2013-02-06 08:36:00,
2013-02-06 03:41:00,27.0,20.1,29.91,WNW,288,4.0,5.0,75,0.00,,,0.00,Wunderground v.1.15,2013-02-06 08:41:00,
2013-02-06 03:46:00,27.0,20.1,29.92,WSW,258,4.0,10.0,75,0.00,,,0.00,Wunderground v.1.15,2013-02-06 08:46:00,
2013-02-06 03:53:00,27.1,19.9,29.92,WNW,299,5.0,6.0,74,0.00,,,0.00,Wunderground v.1.15,2013-02-06 08:53:00,
2013-02-06 03:58:00,27.1,20.2,29.92,East,92,5.0,9.0,75,0.00,,,0.00,Wunderground v.1.15,2013-02-06 08:58:00,
2013-02-06 04:04:00,27.1,20.2,29.92,NW,305,5.0,12.0,75,0.00,,,0.00,Wunderground v.1.15,2013-02-06 09:04:00,
2013-02-06 04:10:00,27.0,20.1,29.92,WSW,258,5.0,12.0,75,0.00,,,0.00,Wunderground v.1.15,2013-02-06 09:10:00,
2013-02-06 04:15:00,27.1,20.2,29.92,NW,305,4.0,8.0,75,0.00,,,0.00,Wunderground v.1.15,2013-02-06 09:15:00,
2013-02-06 04:20:00,27.1,20.5,29.92,West,269,5.0,8.0,76,0.00,,,0.00,Wunderground v.1.15,2013-02-06 09:20:00,
2013-02-06 04:26:00,27.1,20.5,29.92,West,276,5.0,11.0,76,0.00,,,0.00,Wunderground v.1.15,2013-02-06 09:26:00,
2013-02-06 04:32:00,27.1,20.8,29.92,NNE,27,5.0,5.0,77,0.00,,,0.00,Wunderground v.1.15,2013-02-06 09:32:00,
2013-02-06 04:37:00,27.1,20.8,29.92,NW,305,4.0,7.0,77,0.00,,,0.00,Wunderground v.1.15,2013-02-06 09:37:00,
2013-02-06 04:43:00,27.1,20.8,29.92,WNW,285,4.0,7.0,77,0.00,,,0.00,Wunderground v.1.15,2013-02-06 09:43:00,
2013-02-06 04:49:00,27.2,20.9,29.93,WSW,249,5.0,7.0,77,0.00,,,0.00,Wunderground v.1.15,2013-02-06 09:49:00,
2013-02-06 04:54:00,27.2,21.2,29.93,SW,215,4.0,5.0,78,0.00,,,0.00,Wunderground v.1.15,2013-02-06 09:54:00,
2013-02-06 04:59:00,27.2,21.2,29.93,West,259,4.0,8.0,78,0.00,,,0.00,Wunderground v.1.15,2013-02-06 09:59:00,
2013-02-06 05:05:00,27.2,21.2,29.93,West,269,4.0,10.0,78,0.00,,,0.00,Wunderground v.1.15,2013-02-06 10:05:00,
2013-02-06 05:11:00,27.3,21.3,29.93,WNW,291,5.0,6.0,78,0.00,,,0.00,Wunderground v.1.15,2013-02-06 10:11:00,
2013-02-06 05:16:00,27.3,21.3,29.94,WNW,297,6.0,8.0,78,0.00,,,0.00,Wunderground v.1.15,2013-02-06 10:16:00,
2013-02-06 05:23:00,27.3,21.6,29.94,WNW,294,5.0,5.0,79,0.00,,,0.00,Wunderground v.1.15,2013-02-06 10:23:00,
2013-02-06 05:28:00,27.4,21.7,29.94,West,281,5.0,8.0,79,0.00,,,0.00,Wunderground v.1.15,2013-02-06 10:28:00,
2013-02-06 05:33:00,27.4,21.7,29.94,WNW,300,6.0,7.0,79,0.00,,,0.00,Wunderground v.1.15,2013-02-06 10:33:00,
2013-02-06 05:39:00,27.4,21.7,29.95,WNW,287,5.0,11.0,79,0.00,,,0.00,Wunderground v.1.15,2013-02-06 10:39:00,
2013-02-06 05:44:00,27.4,21.7,29.95,WNW,294,5.0,7.0,79,0.00,,,0.00,Wunderground v.1.15,2013-02-06 10:44:00,
2013-02-06 05:51:00,27.4,22.0,29.96,WSW,239,6.0,7.0,80,0.00,,,0.00,Wunderground v.1.15,2013-02-06 10:51:00,
2013-02-06 05:56:00,27.4,22.0,29.95,WNW,284,6.0,11.0,80,0.00,,,0.00,Wunderground v.1.15,2013-02-06 10:56:00,
2013-02-06 06:03:00,27.5,22.4,29.96,WNW,291,6.0,9.0,81,0.00,,,0.00,Wunderground v.1.15,2013-02-06 11:03:00,
2013-02-06 06:08:00,27.5,22.4,29.96,WSW,240,6.0,13.0,81,0.00,,,0.00,Wunderground v.1.15,2013-02-06 11:08:00,
2013-02-06 06:14:00,27.5,22.7,29.96,WNW,293,7.0,11.0,82,0.00,,,0.00,Wunderground v.1.15,2013-02-06 11:14:00,
2013-02-06 06:20:00,27.4,22.9,29.96,West,271,7.0,11.0,83,0.00,,,0.00,Wunderground v.1.15,2013-02-06 11:20:00,
2013-02-06 06:25:00,27.1,23.2,29.96,West,266,7.0,10.0,85,0.00,,,0.00,Wunderground v.1.15,2013-02-06 11:25:00,
2013-02-06 06:31:00,26.9,23.5,29.97,West,281,5.0,5.0,87,0.00,,,0.00,Wunderground v.1.15,2013-02-06 11:31:00,
2013-02-06 06:37:00,26.7,23.6,29.97,WNW,298,4.0,6.0,88,0.00,,,0.00,Wunderground v.1.15,2013-02-06 11:37:00,
2013-02-06 06:42:00,26.7,23.6,29.98,WNW,297,5.0,7.0,88,0.00,,,0.00,Wunderground v.1.15,2013-02-06 11:42:00,
2013-02-06 06:48:00,26.8,23.7,29.98,WNW,301,5.0,7.0,88,0.00,,,0.00,Wunderground v.1.15,2013-02-06 11:48:00,
2013-02-06 06:54:00,26.8,23.7,29.98,WNW,285,5.0,5.0,88,0.00,,,0.00,Wunderground v.1.15,2013-02-06 11:54:00,
2013-02-06 06:59:00,26.9,23.5,29.98,SW,226,5.0,10.0,87,0.00,,,0.00,Wunderground v.1.15,2013-02-06 11:59:00,
2013-02-06 07:05:00,27.0,23.6,29.98,WNW,298,5.0,11.0,87,0.00,,,0.00,Wunderground v.1.15,2013-02-06 12:05:00,
2013-02-06 07:10:00,27.1,23.7,29.99,WNW,297,6.0,6.0,87,0.00,,,0.00,Wunderground v.1.15,2013-02-06 12:10:00,
2013-02-06 07:15:00,27.1,23.7,29.99,WNW,297,7.0,9.0,87,0.00,,,0.00,Wunderground v.1.15,2013-02-06 12:15:00,
2013-02-06 07:22:00,27.2,23.8,29.99,WNW,299,7.0,10.0,87,0.00,,,0.00,Wunderground v.1.15,2013-02-06 12:22:00,
2013-02-06 07:27:00,27.2,23.8,30.00,WNW,294,8.0,15.0,87,0.00,,,0.00,Wunderground v.1.15,2013-02-06 12:27:00,
2013-02-06 07:32:00,27.2,23.8,30.00,WNW,299,9.0,11.0,87,0.00,,,0.00,Wunderground v.1.15,2013-02-06 12:32:00,
2013-02-06 07:37:00,27.2,23.8,30.00,WNW,290,8.0,12.0,87,0.00,,,0.00,Wunderground v.1.15,2013-02-06 12:37:00,
2013-02-06 07:43:00,27.2,23.8,30.00,WNW,294,9.0,15.0,87,0.00,,,0.00,Wunderground v.1.15,2013-02-06 12:43:00,
2013-02-06 07:48:00,27.2,23.8,30.00,NW,314,12.0,16.0,87,0.00,,,0.00,Wunderground v.1.15,2013-02-06 12:48:00,
2013-02-06 07:55:00,27.3,23.7,30.01,NNW,328,13.0,14.0,86,0.00,,,0.00,Wunderground v.1.15,2013-02-06 12:55:00,
2013-02-06 08:01:00,27.3,23.7,30.01,WNW,292,13.0,13.0,86,0.00,,,0.00,Wunderground v.1.15,2013-02-06 13:01:00,
2013-02-06 08:06:00,27.3,23.7,30.02,WNW,297,12.0,15.0,86,0.00,,,0.00,Wunderground v.1.15,2013-02-06 13:06:00,
2013-02-06 08:12:00,27.3,23.7,30.02,WNW,294,11.0,13.0,86,0.00,,,0.00,Wunderground v.1.15,2013-02-06 13:12:00,
2013-02-06 08:17:00,27.2,23.8,30.03,West,276,11.0,19.0,87,0.00,,,0.00,Wunderground v.1.15,2013-02-06 13:17:00,
2013-02-06 08:22:00,27.1,23.5,30.03,WNW,298,12.0,14.0,86,0.00,,,0.00,Wunderground v.1.15,2013-02-06 13:22:00,
2013-02-06 08:28:00,26.9,23.8,30.04,West,281,13.0,19.0,88,0.00,,,0.00,Wunderground v.1.15,2013-02-06 13:28:00,
2013-02-06 08:33:00,26.5,24.0,30.04,West,270,13.0,17.0,90,0.00,,,0.00,Wunderground v.1.15,2013-02-06 13:33:00,
2013-02-06 08:38:00,26.2,24.5,30.05,WNW,297,11.0,18.0,93,0.00,,,0.00,Wunderground v.1.15,2013-02-06 13:38:00,
2013-02-06 08:44:00,26.0,24.3,30.05,WNW,295,11.0,20.0,93,0.00,,,0.00,Wunderground v.1.15,2013-02-06 13:44:00,
2013-02-06 08:49:00,26.0,23.5,30.06,WNW,285,16.0,23.0,90,0.00,,,0.00,Wunderground v.1.15,2013-02-06 13:49:00,
2013-02-06 08:54:00,26.1,23.0,30.06,WNW,287,18.0,27.0,88,0.00,,,0.00,Wunderground v.1.15,2013-02-06 13:54:00,
2013-02-06 09:01:00,26.2,23.4,30.06,WNW,294,15.0,17.0,89,0.00,,,0.00,Wunderground v.1.15,2013-02-06 14:01:00,
2013-02-06 09:06:00,26.4,23.1,30.07,WNW,288,14.0,20.0,87,0.00,,,0.00,Wunderground v.1.15,2013-02-06 14:06:00,
2013-02-06 09:12:00,26.4,22.8,30.07,WNW,290,14.0,14.0,86,0.00,,,0.00,Wunderground v.1.15,2013-02-06 14:12:00,
2013-02-06 09:17:00,26.4,22.5,30.07,West,278,16.0,25.0,85,0.00,,,0.00,Wunderground v.1.15,2013-02-06 14:17:00,
2013-02-06 09:23:00,26.4,21.7,30.07,WNW,285,18.0,19.0,82,0.00,,,0.00,Wunderground v.1.15,2013-02-06 14:23:00,
2013-02-06 09:28:00,26.5,21.5,30.07,WNW,294,18.0,21.0,81,0.00,,,0.00,Wunderground v.1.15,2013-02-06 14:28:00,
2013-02-06 09:33:00,26.6,20.7,30.08,WNW,291,17.0,19.0,78,0.00,,,0.00,Wunderground v.1.15,2013-02-06 14:33:00,
2013-02-06 09:39:00,26.5,20.3,30.08,West,281,20.0,30.0,77,0.00,,,0.00,Wunderground v.1.15,2013-02-06 14:39:00,
2013-02-06 09:45:00,26.3,20.1,30.09,WNW,294,21.0,25.0,77,0.00,,,0.00,Wunderground v.1.15,2013-02-06 14:45:00,
2013-02-06 09:50:00,26.3,19.5,30.09,WNW,289,20.0,26.0,75,0.00,,,0.00,Wunderground v.1.15,2013-02-06 14:50:00,
2013-02-06 09:56:00,26.4,19.5,30.09,WNW,287,19.0,23.0,75,0.00,,,0.00,Wunderground v.1.15,2013-02-06 14:56:00,
2013-02-06 10:01:00,26.4,19.5,30.10,WNW,288,19.0,19.0,75,0.00,,,0.00,Wunderground v.1.15,2013-02-06 15:01:00,
2013-02-06 10:07:00,26.6,19.7,30.10,WNW,291,17.0,19.0,75,0.00,,,0.00,Wunderground v.1.15,2013-02-06 15:07:00,
2013-02-06 10:12:00,26.5,19.6,30.11,WNW,284,15.0,19.0,75,0.00,,,0.00,Wunderground v.1.15,2013-02-06 15:12:00,
2013-02-06 10:18:00,26.4,19.5,30.11,WNW,301,18.0,24.0,75,0.00,,,0.00,Wunderground v.1.15,2013-02-06 15:18:00,
2013-02-06 10:23:00,26.8,19.6,30.11,West,274,16.0,19.0,74,0.00,,,0.00,Wunderground v.1.15,2013-02-06 15:23:00,
2013-02-06 10:28:00,27.0,19.5,30.11,WNW,295,14.0,19.0,73,0.00,,,0.00,Wunderground v.1.15,2013-02-06 15:28:00,
2013-02-06 10:35:00,27.2,19.7,30.12,WNW,290,14.0,19.0,73,0.00,,,0.00,Wunderground v.1.15,2013-02-06 15:35:00,
2013-02-06 10:40:00,25.6,20.9,30.13,NNW,342,11.0,11.0,82,0.00,,,0.00,Wunderground v.1.15,2013-02-06 15:40:00,
2013-02-06 10:45:00,25.1,20.1,30.13,WNW,291,9.0,11.0,81,0.00,,,0.00,Wunderground v.1.15,2013-02-06 15:45:00,
2013-02-06 10:51:00,25.3,19.7,30.13,NW,311,11.0,16.0,79,0.00,,,0.00,Wunderground v.1.15,2013-02-06 15:51:00,
2013-02-06 10:57:00,25.3,19.4,30.14,NW,314,14.0,26.0,78,0.00,,,0.00,Wunderground v.1.15,2013-02-06 15:57:00,
2013-02-06 11:03:00,25.3,20.3,30.15,WNW,300,13.0,14.0,81,0.00,,,0.00,Wunderground v.1.15,2013-02-06 16:03:00,
2013-02-06 11:08:00,25.1,19.5,30.15,WNW,284,12.0,19.0,79,0.00,,,0.00,Wunderground v.1.15,2013-02-06 16:08:00,
2013-02-06 11:14:00,25.1,19.5,30.15,WNW,295,12.0,18.0,79,0.00,,,0.00,Wunderground v.1.15,2013-02-06 16:14:00,
2013-02-06 11:20:00,25.3,19.4,30.15,WNW,302,11.0,18.0,78,0.00,,,0.00,Wunderground v.1.15,2013-02-06 16:20:00,
2013-02-06 11:25:00,25.2,18.7,30.15,WNW,284,12.0,19.0,76,0.00,,,0.00,Wunderground v.1.15,2013-02-06 16:25:00,
2013-02-06 11:30:00,25.1,18.3,30.15,WNW,292,13.0,17.0,75,0.00,,,0.00,Wunderground v.1.15,2013-02-06 16:30:00,
2013-02-06 11:35:00,24.8,18.0,30.16,WNW,287,14.0,25.0,75,0.00,,,0.00,Wunderground v.1.15,2013-02-06 16:35:00,
2013-02-06 11:41:00,24.4,17.0,30.16,WNW,293,17.0,18.0,73,0.00,,,0.00,Wunderground v.1.15,2013-02-06 16:41:00,
2013-02-06 11:46:00,24.7,17.6,30.16,NNW,332,18.0,25.0,74,0.00,,,0.00,Wunderground v.1.15,2013-02-06 16:46:00,
2013-02-06 11:52:00,24.9,17.8,30.16,WNW,294,13.0,20.0,74,0.00,,,0.00,Wunderground v.1.15,2013-02-06 16:52:00,
2013-02-06 11:58:00,24.4,16.7,30.16,WNW,294,15.0,23.0,72,0.00,,,0.00,Wunderground v.1.15,2013-02-06 16:58:00,
2013-02-06 12:03:00,24.5,16.1,30.16,WNW,299,16.0,21.0,70,0.00,,,0.00,Wunderground v.1.15,2013-02-06 17:03:00,
2013-02-06 12:08:00,24.6,15.5,30.16,WNW,293,16.0,21.0,68,0.00,,,0.00,Wunderground v.1.15,2013-02-06 17:08:00,
2013-02-06 12:15:00,24.3,14.9,30.16,NW,307,15.0,27.0,67,0.00,,,0.00,Wunderground v.1.15,2013-02-06 17:15:00,
2013-02-06 12:21:00,24.1,14.0,30.17,West,271,18.0,27.0,65,0.00,,,0.00,Wunderground v.1.15,2013-02-06 17:21:00,
2013-02-06 12:26:00,23.9,13.5,30.17,WNW,295,21.0,26.0,64,0.00,,,0.00,Wunderground v.1.15,2013-02-06 17:26:00,
2013-02-06 12:33:00,24.1,13.3,30.17,WNW,292,22.0,23.0,63,0.00,,,0.00,Wunderground v.1.15,2013-02-06 17:33:00,
2013-02-06 12:38:00,24.2,13.0,30.18,West,276,20.0,23.0,62,0.00,,,0.00,Wunderground v.1.15,2013-02-06 17:38:00,
2013-02-06 12:44:00,24.2,11.9,30.18,West,277,21.0,24.0,59,0.00,,,0.00,Wunderground v.1.15,2013-02-06 17:44:00,
2013-02-06 12:49:00,24.0,11.3,30.18,WNW,291,23.0,30.0,58,0.00,,,0.00,Wunderground v.1.15,2013-02-06 17:49:00,
2013-02-06 12:55:00,24.2,11.1,30.19,NE,47,21.0,22.0,57,0.00,,,0.00,Wunderground v.1.15,2013-02-06 17:55:00,
2013-02-06 13:01:00,24.2,11.1,30.19,West,274,18.0,21.0,57,0.00,,,0.00,Wunderground v.1.15,2013-02-06 18:01:00,
2013-02-06 13:07:00,24.3,11.2,30.19,WNW,284,15.0,23.0,57,0.00,,,0.00,Wunderground v.1.15,2013-02-06 18:07:00,
2013-02-06 13:12:00,24.2,11.1,30.19,WNW,294,15.0,29.0,57,0.00,,,0.00,Wunderground v.1.15,2013-02-06 18:12:00,
2013-02-06 13:18:00,24.1,10.2,30.20,WNW,295,16.0,29.0,55,0.00,,,0.00,Wunderground v.1.15,2013-02-06 18:18:00,
2013-02-06 13:23:00,24.0,10.2,30.20,WNW,283,17.0,22.0,55,0.00,,,0.00,Wunderground v.1.15,2013-02-06 18:23:00,
2013-02-06 13:29:00,24.2,9.5,30.20,WNW,301,17.0,22.0,53,0.00,,,0.00,Wunderground v.1.15,2013-02-06 18:29:00,
2013-02-06 13:35:00,23.9,8.4,30.20,WNW,302,17.0,21.0,51,0.00,,,0.00,Wunderground v.1.15,2013-02-06 18:35:00,
2013-02-06 13:40:00,23.8,8.3,30.20,WNW,284,19.0,22.0,51,0.00,,,0.00,Wunderground v.1.15,2013-02-06 18:40:00,
2013-02-06 13:46:00,23.8,6.9,30.20,WNW,301,20.0,25.0,48,0.00,,,0.00,Wunderground v.1.15,2013-02-06 18:46:00,
2013-02-06 13:51:00,23.5,7.1,30.21,WNW,288,20.0,21.0,49,0.00,,,0.00,Wunderground v.1.15,2013-02-06 18:51:00,
2013-02-06 13:56:00,23.2,7.3,30.21,West,269,21.0,30.0,50,0.00,,,0.00,Wunderground v.1.15,2013-02-06 18:56:00,
2013-02-06 14:02:00,23.4,6.6,30.21,West,280,20.0,24.0,48,0.00,,,0.00,Wunderground v.1.15,2013-02-06 19:02:00,
2013-02-06 14:08:00,23.4,6.6,30.22,WNW,296,18.0,24.0,48,0.00,,,0.00,Wunderground v.1.15,2013-02-06 19:08:00,
2013-02-06 14:13:00,23.4,7.5,30.22,WNW,302,18.0,20.0,50,0.00,,,0.00,Wunderground v.1.15,2013-02-06 19:13:00,
2013-02-06 14:18:00,23.4,7.9,30.22,WNW,295,17.0,25.0,51,0.00,,,0.00,Wunderground v.1.15,2013-02-06 19:18:00,
2013-02-06 14:23:00,23.3,7.8,30.22,NW,308,18.0,23.0,51,0.00,,,0.00,Wunderground v.1.15,2013-02-06 19:23:00,
2013-02-06 14:28:00,23.3,8.2,30.23,WNW,291,19.0,23.0,52,0.00,,,0.00,Wunderground v.1.15,2013-02-06 19:28:00,
2013-02-06 14:33:00,23.3,6.5,30.23,WNW,284,17.0,20.0,48,0.00,,,0.00,Wunderground v.1.15,2013-02-06 19:33:00,
2013-02-06 14:39:00,23.3,6.9,30.23,WNW,295,17.0,21.0,49,0.00,,,0.00,Wunderground v.1.15,2013-02-06 19:39:00,
2013-02-06 14:44:00,23.4,8.3,30.23,North,350,17.0,21.0,52,0.00,,,0.00,Wunderground v.1.15,2013-02-06 19:44:00,
2013-02-06 14:50:00,23.1,7.2,30.23,West,277,18.0,30.0,50,0.00,,,0.00,Wunderground v.1.15,2013-02-06 19:50:00,
2013-02-06 14:55:00,23.5,7.6,30.24,WNW,297,15.0,18.0,50,0.00,,,0.00,Wunderground v.1.15,2013-02-06 19:55:00,
2013-02-06 15:01:00,22.9,7.4,30.24,WNW,298,16.0,18.0,51,0.00,,,0.00,Wunderground v.1.15,2013-02-06 20:01:00,
2013-02-06 15:07:00,22.8,7.8,30.24,WNW,299,19.0,22.0,52,0.00,,,0.00,Wunderground v.1.15,2013-02-06 20:07:00,
2013-02-06 15:12:00,22.7,8.5,30.25,WNW,291,19.0,26.0,54,0.00,,,0.00,Wunderground v.1.15,2013-02-06 20:12:00,
2013-02-06 15:19:00,22.5,8.7,30.25,WNW,302,18.0,26.0,55,0.00,,,0.00,Wunderground v.1.15,2013-02-06 20:19:00,
2013-02-06 15:24:00,22.4,9.1,30.26,WNW,297,17.0,20.0,56,0.00,,,0.00,Wunderground v.1.15,2013-02-06 20:24:00,
2013-02-06 15:29:00,22.4,9.4,30.26,WNW,293,18.0,23.0,57,0.00,,,0.00,Wunderground v.1.15,2013-02-06 20:29:00,
2013-02-06 15:35:00,22.3,9.7,30.26,WNW,291,18.0,21.0,58,0.00,,,0.00,Wunderground v.1.15,2013-02-06 20:35:00,
2013-02-06 15:41:00,22.4,9.1,30.26,WNW,289,16.0,16.0,56,0.00,,,0.00,Wunderground v.1.15,2013-02-06 20:41:00,
2013-02-06 15:46:00,22.3,9.0,30.27,WNW,294,17.0,25.0,56,0.00,,,0.00,Wunderground v.1.15,2013-02-06 20:46:00,
2013-02-06 15:52:00,22.1,9.2,30.27,WNW,294,17.0,20.0,57,0.00,,,0.00,Wunderground v.1.15,2013-02-06 20:52:00,
2013-02-06 15:57:00,22.0,9.1,30.27,WNW,297,17.0,20.0,57,0.00,,,0.00,Wunderground v.1.15,2013-02-06 20:57:00,
2013-02-06 16:03:00,22.0,9.5,30.27,West,280,17.0,18.0,58,0.00,,,0.00,Wunderground v.1.15,2013-02-06 21:03:00,
2013-02-06 16:09:00,21.9,9.0,30.28,WNW,290,16.0,21.0,57,0.00,,,0.00,Wunderground v.1.15,2013-02-06 21:09:00,
2013-02-06 16:14:00,21.8,9.3,30.28,West,278,15.0,22.0,58,0.00,,,0.00,Wunderground v.1.15,2013-02-06 21:14:00,
2013-02-06 16:20:00,21.8,9.7,30.28,NW,322,15.0,22.0,59,0.00,,,0.00,Wunderground v.1.15,2013-02-06 21:20:00,
2013-02-06 16:25:00,21.8,9.7,30.28,WNW,291,13.0,16.0,59,0.00,,,0.00,Wunderground v.1.15,2013-02-06 21:25:00,
2013-02-06 16:31:00,21.7,9.2,30.28,WNW,299,13.0,14.0,58,0.00,,,0.00,Wunderground v.1.15,2013-02-06 21:31:00,
2013-02-06 16:36:00,21.8,8.9,30.28,West,276,13.0,18.0,57,0.00,,,0.00,Wunderground v.1.15,2013-02-06 21:36:00,
2013-02-06 16:41:00,21.5,8.6,30.28,West,276,13.0,16.0,57,0.00,,,0.00,Wunderground v.1.15,2013-02-06 21:41:00,
2013-02-06 16:48:00,21.1,9.0,30.29,West,277,14.0,19.0,59,0.00,,,0.00,Wunderground v.1.15,2013-02-06 21:48:00,
2013-02-06 16:53:00,20.9,8.4,30.29,NW,314,13.0,14.0,58,0.00,,,0.00,Wunderground v.1.15,2013-02-06 21:53:00,
2013-02-06 16:58:00,20.8,8.7,30.29,West,264,12.0,17.0,59,0.00,,,0.00,Wunderground v.1.15,2013-02-06 21:58:00,
2013-02-06 17:04:00,20.6,8.9,30.29,WNW,297,14.0,18.0,60,0.00,,,0.00,Wunderground v.1.15,2013-02-06 22:04:00,
2013-02-06 17:09:00,20.6,9.3,30.30,WNW,298,15.0,18.0,61,0.00,,,0.00,Wunderground v.1.15,2013-02-06 22:09:00,
2013-02-06 17:14:00,20.5,9.2,30.30,WNW,297,13.0,18.0,61,0.00,,,0.00,Wunderground v.1.15,2013-02-06 22:14:00,
2013-02-06 17:19:00,20.4,9.1,30.30,WNW,290,12.0,18.0,61,0.00,,,0.00,Wunderground v.1.15,2013-02-06 22:19:00,
2013-02-06 17:24:00,20.2,9.2,30.30,WNW,295,10.0,12.0,62,0.00,,,0.00,Wunderground v.1.15,2013-02-06 22:24:00,
2013-02-06 17:30:00,20.2,9.2,30.30,West,281,9.0,13.0,62,0.00,,,0.00,Wunderground v.1.15,2013-02-06 22:30:00,
2013-02-06 17:36:00,19.9,9.3,30.30,WNW,283,8.0,12.0,63,0.00,,,0.00,Wunderground v.1.15,2013-02-06 22:36:00,
2013-02-06 17:41:00,19.8,9.6,30.31,WNW,292,7.0,7.0,64,0.00,,,0.00,Wunderground v.1.15,2013-02-06 22:41:00,
2013-02-06 17:48:00,19.6,9.4,30.31,WNW,290,6.0,11.0,64,0.00,,,0.00,Wunderground v.1.15,2013-02-06 22:48:00,
2013-02-06 17:53:00,19.6,9.7,30.31,West,274,5.0,7.0,65,0.00,,,0.00,Wunderground v.1.15,2013-02-06 22:53:00,
2013-02-06 17:58:00,19.6,9.7,30.32,WNW,283,5.0,8.0,65,0.00,,,0.00,Wunderground v.1.15,2013-02-06 22:58:00,
2013-02-06 18:03:00,19.5,9.6,30.32,WNW,287,5.0,5.0,65,0.00,,,0.00,Wunderground v.1.15,2013-02-06 23:03:00,
2013-02-06 18:10:00,19.4,9.5,30.32,WSW,258,4.0,6.0,65,0.00,,,0.00,Wunderground v.1.15,2013-02-06 23:10:00,
2013-02-06 18:15:00,19.3,9.4,30.32,West,281,4.0,5.0,65,0.00,,,0.00,Wunderground v.1.15,2013-02-06 23:15:00,
2013-02-06 18:20:00,19.2,9.4,30.33,WNW,291,4.0,5.0,65,0.00,,,0.00,Wunderground v.1.15,2013-02-06 23:20:00,
2013-02-06 18:25:00,19.1,9.6,30.32,WNW,285,3.0,3.0,66,0.00,,,0.00,Wunderground v.1.15,2013-02-06 23:25:00,
2013-02-06 18:32:00,19.0,9.5,30.32,West,259,3.0,4.0,66,0.00,,,0.00,Wunderground v.1.15,2013-02-06 23:32:00,
2013-02-06 18:37:00,18.9,9.4,30.33,West,279,2.0,4.0,66,0.00,,,0.00,Wunderground v.1.15,2013-02-06 23:37:00,
2013-02-06 18:42:00,18.6,9.5,30.33,WSW,238,1.0,1.0,67,0.00,,,0.00,Wunderground v.1.15,2013-02-06 23:42:00,
2013-02-06 18:49:00,18.1,9.0,30.33,SSE,160,0.0,1.0,67,0.00,,,0.00,Wunderground v.1.15,2013-02-06 23:49:00,
2013-02-06 18:54:00,17.9,9.4,30.33,WSW,248,0.0,1.0,69,0.00,,,0.00,Wunderground v.1.15,2013-02-06 23:54:00,
2013-02-06 18:59:00,18.0,9.2,30.33,WSW,258,1.0,1.0,68,0.00,,,0.00,Wunderground v.1.15,2013-02-06 23:59:00,
2013-02-06 19:05:00,17.8,9.3,30.33,WSW,248,1.0,2.0,69,0.00,,,0.00,Wunderground v.1.15,2013-02-07 00:05:00,
2013-02-06 19:10:00,17.9,9.4,30.34,West,276,1.0,1.0,69,0.00,,,0.00,Wunderground v.1.15,2013-02-07 00:10:00,
2013-02-06 19:15:00,17.9,9.1,30.33,West,259,1.0,3.0,68,0.00,,,0.00,Wunderground v.1.15,2013-02-07 00:15:00,
2013-02-06 19:21:00,17.5,9.1,30.34,West,260,1.0,2.0,69,0.00,,,0.00,Wunderground v.1.15,2013-02-07 00:21:00,
2013-02-06 19:26:00,17.2,9.1,30.34,SW,226,1.0,2.0,70,0.00,,,0.00,Wunderground v.1.15,2013-02-07 00:26:00,
2013-02-06 19:31:00,17.2,9.4,30.34,WSW,250,1.0,3.0,71,0.00,,,0.00,Wunderground v.1.15,2013-02-07 00:31:00,
2013-02-06 19:37:00,17.3,9.2,30.35,WSW,250,2.0,3.0,70,0.00,,,0.00,Wunderground v.1.15,2013-02-07 00:37:00,
2013-02-06 19:42:00,17.3,9.5,30.35,SW,236,2.0,3.0,71,0.00,,,0.00,Wunderground v.1.15,2013-02-07 00:42:00,
2013-02-06 19:47:00,17.4,9.3,30.35,WSW,256,2.0,4.0,70,0.00,,,0.00,Wunderground v.1.15,2013-02-07 00:47:00,
2013-02-06 19:53:00,17.5,9.4,30.35,West,273,2.0,2.0,70,0.00,,,0.00,Wunderground v.1.15,2013-02-07 00:53:00,
2013-02-06 19:59:00,17.4,9.3,30.36,West,266,2.0,4.0,70,0.00,,,0.00,Wunderground v.1.15,2013-02-07 00:59:00,
2013-02-06 20:04:00,17.4,9.3,30.36,WSW,250,2.0,4.0,70,0.00,,,0.00,Wunderground v.1.15,2013-02-07 01:04:00,
2013-02-06 20:10:00,17.5,9.4,30.36,WSW,256,2.0,3.0,70,0.00,,,0.00,Wunderground v.1.15,2013-02-07 01:10:00,
2013-02-06 20:15:00,17.5,9.4,30.36,WSW,245,3.0,3.0,70,0.00,,,0.00,Wunderground v.1.15,2013-02-07 01:15:00,
2013-02-06 20:21:00,17.5,9.4,30.37,West,261,2.0,3.0,70,0.00,,,0.00,Wunderground v.1.15,2013-02-07 01:21:00,
2013-02-06 20:27:00,17.6,9.5,30.37,WNW,294,3.0,5.0,70,0.00,,,0.00,Wunderground v.1.15,2013-02-07 01:27:00,
2013-02-06 20:32:00,17.7,9.6,30.38,West,269,3.0,4.0,70,0.00,,,0.00,Wunderground v.1.15,2013-02-07 01:32:00,
2013-02-06 20:38:00,17.4,9.3,30.38,West,260,2.0,4.0,70,0.00,,,0.00,Wunderground v.1.15,2013-02-07 01:38:00,
2013-02-06 20:43:00,17.6,9.5,30.37,West,276,2.0,4.0,70,0.00,,,0.00,Wunderground v.1.15,2013-02-07 01:43:00,
2013-02-06 20:48:00,17.5,9.4,30.38,West,270,2.0,4.0,70,0.00,,,0.00,Wunderground v.1.15,2013-02-07 01:48:00,
2013-02-06 20:54:00,17.4,9.6,30.38,WSW,257,2.0,2.0,71,0.00,,,0.00,Wunderground v.1.15,2013-02-07 01:54:00,
2013-02-06 21:01:00,17.4,9.6,30.38,West,277,3.0,3.0,71,0.00,,,0.00,Wunderground v.1.15,2013-02-07 02:01:00,
2013-02-06 21:07:00,17.3,9.5,30.38,West,271,3.0,5.0,71,0.00,,,0.00,Wunderground v.1.15,2013-02-07 02:07:00,
2013-02-06 21:12:00,17.4,9.6,30.38,WSW,240,3.0,3.0,71,0.00,,,0.00,Wunderground v.1.15,2013-02-07 02:12:00,
2013-02-06 21:18:00,17.4,9.6,30.39,West,271,3.0,4.0,71,0.00,,,0.00,Wunderground v.1.15,2013-02-07 02:18:00,
2013-02-06 21:23:00,17.3,9.5,30.39,WSW,248,4.0,5.0,71,0.00,,,0.00,Wunderground v.1.15,2013-02-07 02:23:00,
2013-02-06 21:28:00,17.1,9.6,30.39,WSW,250,3.0,5.0,72,0.00,,,0.00,Wunderground v.1.15,2013-02-07 02:28:00,
2013-02-06 21:33:00,17.1,9.6,30.39,West,262,2.0,4.0,72,0.00,,,0.00,Wunderground v.1.15,2013-02-07 02:33:00,
2013-02-06 21:39:00,17.0,9.5,30.39,WSW,246,2.0,4.0,72,0.00,,,0.00,Wunderground v.1.15,2013-02-07 02:39:00,
2013-02-06 21:44:00,16.9,9.4,30.39,West,277,2.0,4.0,72,0.00,,,0.00,Wunderground v.1.15,2013-02-07 02:44:00,
2013-02-06 21:50:00,16.4,8.9,30.39,SW,235,1.0,4.0,72,0.00,,,0.00,Wunderground v.1.15,2013-02-07 02:50:00,
2013-02-06 21:55:00,16.3,9.5,30.39,SSE,162,1.0,2.0,74,0.00,,,0.00,Wunderground v.1.15,2013-02-07 02:55:00,
2013-02-06 22:01:00,16.0,9.2,30.39,WSW,256,0.0,0.0,74,0.00,,,0.00,Wunderground v.1.15,2013-02-07 03:01:00,
2013-02-06 22:06:00,15.7,8.9,30.39,West,273,0.0,0.0,74,0.00,,,0.00,Wunderground v.1.15,2013-02-07 03:06:00,
2013-02-06 22:12:00,15.5,9.0,30.39,SW,229,0.0,1.0,75,0.00,,,0.00,Wunderground v.1.15,2013-02-07 03:12:00,
2013-02-06 22:17:00,15.8,9.6,30.39,SW,235,1.0,2.0,76,0.00,,,0.00,Wunderground v.1.15,2013-02-07 03:17:00,
2013-02-06 22:22:00,16.1,9.6,30.39,WSW,253,1.0,3.0,75,0.00,,,0.00,Wunderground v.1.15,2013-02-07 03:22:00,
2013-02-06 22:28:00,16.1,9.6,30.39,SW,231,1.0,3.0,75,0.00,,,0.00,Wunderground v.1.15,2013-02-07 03:28:00,
2013-02-06 22:35:00,16.1,9.6,30.38,SW,229,1.0,2.0,75,0.00,,,0.00,Wunderground v.1.15,2013-02-07 03:35:00,
2013-02-06 22:40:00,16.2,9.7,30.39,West,269,1.0,1.0,75,0.00,,,0.00,Wunderground v.1.15,2013-02-07 03:40:00,
2013-02-06 22:46:00,16.0,9.2,30.38,SW,218,1.0,1.0,74,0.00,,,0.00,Wunderground v.1.15,2013-02-07 03:46:00,
2013-02-06 22:52:00,15.5,9.0,30.38,West,271,0.0,0.0,75,0.00,,,0.00,Wunderground v.1.15,2013-02-07 03:52:00,
2013-02-06 22:58:00,15.5,9.3,30.38,West,281,0.0,0.0,76,0.00,,,0.00,Wunderground v.1.15,2013-02-07 03:58:00,
2013-02-06 23:03:00,16.0,9.8,30.38,SW,231,0.0,1.0,76,0.00,,,0.00,Wunderground v.1.15,2013-02-07 04:03:00,
2013-02-06 23:09:00,16.7,9.8,30.39,WSW,248,2.0,3.0,74,0.00,,,0.00,Wunderground v.1.15,2013-02-07 04:09:00,
2013-02-06 23:14:00,16.8,9.3,30.39,West,267,2.0,2.0,72,0.00,,,0.00,Wunderground v.1.15,2013-02-07 04:14:00,
2013-02-06 23:20:00,16.8,9.6,30.39,West,259,2.0,2.0,73,0.00,,,0.00,Wunderground v.1.15,2013-02-07 04:20:00,
2013-02-06 23:26:00,16.7,9.8,30.39,SW,236,3.0,3.0,74,0.00,,,0.00,Wunderground v.1.15,2013-02-07 04:26:00,
2013-02-06 23:31:00,16.6,9.8,30.40,WSW,257,3.0,3.0,74,0.00,,,0.00,Wunderground v.1.15,2013-02-07 04:31:00,
2013-02-06 23:37:00,16.4,9.6,30.40,West,263,2.0,4.0,74,0.00,,,0.00,Wunderground v.1.15,2013-02-07 04:37:00,
2013-02-06 23:42:00,16.2,9.4,30.40,WSW,250,2.0,4.0,74,0.00,,,0.00,Wunderground v.1.15,2013-02-07 04:42:00,
2013-02-06 23:47:00,16.3,9.5,30.40,WSW,243,2.0,4.0,74,0.00,,,0.00,Wunderground v.1.15,2013-02-07 04:47:00,
2013-02-06 23:53:00,16.0,9.2,30.41,WSW,247,2.0,2.0,74,0.00,,,0.00,Wunderground v.1.15,2013-02-07 04:53:00,
2013-02-06 23:58:00,15.8,9.0,30.40,WSW,240,1.0,2.0,74,0.00,,,0.00,Wunderground v.1.15,2013-02-07 04:58:00,